This is the latest recevied weather packets stored in our database for station/object K7TSD. If no packets are shown the sender has not sent any weather packets the latest 10 day(s).
| Time | Temp. | Humidity | Pressure | Rain* | Wind** | Luminosity | Snow |
|---|---|---|---|---|---|---|---|
| 1778099732 | 8.89° C | 46% | 1012.2 hPa | 0 mm | - | 501 W/m² | - |
| 1778099428 | 10° C | 44% | 1012.3 hPa | 0 mm | - | 474 W/m² | - |
| 1778099126 | 8.89° C | 45% | 1012.3 hPa | 0 mm | - | 613 W/m² | - |
| 1778098822 | 8.89° C | 47% | 1012.2 hPa | 0 mm | - | 692 W/m² | - |
| 1778098520 | 8.33° C | 47% | 1012.3 hPa | 0 mm | - | 631 W/m² | - |
| 1778098216 | 10° C | 44% | 1012.4 hPa | 0 mm | - | 667 W/m² | - |
| 1778097912 | 9.44° C | 49% | 1012.3 hPa | 0 mm | - | 686 W/m² | - |
| 1778097609 | 8.89° C | 47% | 1012.4 hPa | 0 mm | - | 693 W/m² | - |
| 1778097306 | 8.89° C | 49% | 1012.7 hPa | 0 mm | - | 695 W/m² | - |
| 1778096997 | 8.89° C | 48% | 1012.8 hPa | 0 mm | - | 694 W/m² | - |
| 1778096695 | 7.78° C | 49% | 1012.9 hPa | 0 mm | - | 668 W/m² | - |
| 1778096391 | 7.78° C | 49% | 1012.9 hPa | 0 mm | - | 661 W/m² | - |
| 1778096088 | 8.33° C | 49% | 1012.8 hPa | 0 mm | - | 507 W/m² | - |
| 1778095784 | 8.89° C | 44% | 1012.8 hPa | 0 mm | - | 702 W/m² | - |
| 1778095481 | 8.33° C | 46% | 1013 hPa | 0 mm | - | 699 W/m² | - |
| 1778095178 | 7.78° C | 45% | 1013.1 hPa | 0 mm | - | 699 W/m² | - |
| 1778094874 | 7.22° C | 47% | 1013 hPa | 0 mm | - | 698 W/m² | - |
| 1778094571 | 7.78° C | 45% | 1013.5 hPa | 0 mm | - | 741 W/m² | - |
| 1778094268 | 7.22° C | 49% | 1013.2 hPa | 0 mm | - | 727 W/m² | - |
| 1778093965 | 7.78° C | 47% | 1013.1 hPa | 0 mm | - | 730 W/m² | - |
| 1778093663 | 7.22° C | 48% | 1013.2 hPa | 0 mm | - | 732 W/m² | - |
| 1778093359 | 7.22° C | 54% | 1013.5 hPa | 0 mm | - | 717 W/m² | - |
| 1778093056 | 7.22° C | 49% | 1013.8 hPa | 0 mm | - | 767 W/m² | - |
| 1778092753 | 7.78° C | 48% | 1013.6 hPa | 0 mm | - | 753 W/m² | - |
| 1778092448 | 7.78° C | 47% | 1013.9 hPa | 0 mm | - | 778 W/m² | - |
* Rain latest hour (hover to see other rain measurements)
** Current wind speed in m/s (hover to see current wind gust speed)